Simultaneous Nadir Overpasses (SNOs) Predictions

Prediction of SNOs between GOES-15 and TERRA Satellite Orbit:

Table of predicted SNOs for the next 14.0 days since TLE Epoch: 3/1/2014
Index Date Time (GOES-15) GOES-15 Lat,Lon TERRA Lat,Lon Distance(km) Time Diff (sec)
1 03/01/2014 19:21:40 0.07,-135.06 -0.41,-132.68 270.73 80
2 03/02/2014 07:43:03 -0.07,-135.00 -0.69,-137.87 326.27 80
3 03/04/2014 07:28:09 -0.07,-134.94 -0.09,-134.89 5.56 80
4 03/06/2014 07:15:56 -0.07,-134.87 0.56,-131.93 334.95 80
5 03/06/2014 19:37:10 0.07,-134.90 0.51,-137.08 247.69 80
6 03/08/2014 19:27:34 0.06,-134.83 -0.08,-134.10 82.65 80
7 03/10/2014 19:15:18 0.06,-134.76 -0.72,-131.13 412.89 80
8 03/11/2014 07:36:41 -0.06,-134.69 -0.37,-136.31 183.97 80
9 03/13/2014 07:21:43
